Terminal Aerodrome Forecast
Issued by NWS Mt. Holly, NJ

Home | Current Version | Previous Version | Text Only | Print | Product List | Glossary On
Versions: 1 2 3 4 5 6 7 8 9 10 11 12 13 14 15 16 17 18 19 20 21 22
000
FTUS41 KPHI 230500
TAFILG
TAF
KILG 230533Z 2306/2406 32014G22KT P6SM -RA SCT025 OVC040
     FM231400 33017G30KT P6SM BKN025 OVC035
     FM231700 32015G30KT P6SM SCT025 OVC035
     FM240300 33012KT P6SM SCT030 OVC050=

USA.gov is the U.S. government's official web portal to all federal, state and local government web resources and services.